• In Deutschland
  • Länderverzeichnis
  • Für 7 Tage
  • Wassertemperatur
  • Satellitenkarten
  • Wetterkarte
  • Widgets
  • user-avatar
    Anmelden

    Stündliche Wetter Herrenberg

    Heute, 20 September, Donnerstag

    Zeit Temperatur Niederschläge Wind Luftdruck Luftfeuchtigkeit
    00:00 +19°C° 0 mm 1 m/S 727 mmHg 74%
    01:00 +19°C° 0 mm 1 m/S 726 mmHg 67%
    02:00 +19°C° 0 mm 1 m/S 726 mmHg 68%
    03:00 +18°C° 0 mm 1 m/S 726 mmHg 69%
    04:00 +18°C° 0 mm 1 m/S 726 mmHg 70%
    05:00 +18°C° 0 mm 1 m/S 726 mmHg 71%
    06:00 +18°C° 0 mm 1 m/S 726 mmHg 72%
    07:00 +18°C° 0 mm 1 m/S 726 mmHg 70%
    08:00 +21°C° 0 mm 1 m/S 727 mmHg 65%
    09:00 +23°C° 0 mm 1 m/S 727 mmHg 59%
    10:00 +25°C° 0 mm 1 m/S 727 mmHg 54%
    11:00 +26°C° 0 mm 1 m/S 727 mmHg 51%
    12:00 +27°C° 0 mm 1 m/S 727 mmHg 47%
    13:00 +28°C° 0 mm 1 m/S 726 mmHg 44%
    14:00 +28°C° 0 mm 1 m/S 726 mmHg 44%
    15:00 +28°C° 0 mm 1 m/S 725 mmHg 45%
    16:00 +28°C° 0 mm 1 m/S 725 mmHg 45%
    17:00 +26°C° 0 mm 1 m/S 725 mmHg 52%
    18:00 +24°C° 0 mm 1 m/S 724 mmHg 59%
    19:00 +21°C° 0 mm 1 m/S 724 mmHg 66%
    20:00 +21°C° 0 mm 1 m/S 724 mmHg 69%
    21:00 +20°C° 0 mm 1 m/S 724 mmHg 71%
    22:00 +19°C° 0 mm 1 m/S 723 mmHg 74%
    23:00 +19°C° 0 mm 1 m/S 723 mmHg 75%

    Morgen, 21 September, Freitag

    Zeit Temperatur Niederschläge Wind Luftdruck Luftfeuchtigkeit
    00:00 +18°C° 0 mm 2 m/S 723 mmHg 76%
    01:00 +17°C° 0 mm 2 m/S 722 mmHg 77%
    02:00 +17°C° 0 mm 2 m/S 722 mmHg 78%
    03:00 +17°C° 0 mm 2 m/S 722 mmHg 78%
    04:00 +17°C° 0 mm 2 m/S 721 mmHg 78%
    05:00 +17°C° 0 mm 2 m/S 721 mmHg 76%
    06:00 +17°C° 0 mm 3 m/S 721 mmHg 74%
    07:00 +18°C° 0 mm 3 m/S 721 mmHg 73%
    08:00 +20°C° 0 mm 4 m/S 721 mmHg 66%
    09:00 +22°C° 0 mm 5 m/S 721 mmHg 60%
    10:00 +24°C° 0 mm 7 m/S 721 mmHg 54%
    11:00 +24°C° 0 mm 7 m/S 721 mmHg 51%
    12:00 +24°C° 0 mm 7 m/S 721 mmHg 49%
    13:00 +24°C° 0 mm 7 m/S 721 mmHg 46%
    14:00 +22°C° 0.7 mm 7 m/S 721 mmHg 56%
    15:00 +20°C° 0.7 mm 7 m/S 721 mmHg 66%
    16:00 +17°C° 0.7 mm 7 m/S 721 mmHg 76%
    17:00 +16°C° 0.5 mm 6 m/S 722 mmHg 77%
    18:00 +14°C° 0.5 mm 5 m/S 723 mmHg 78%
    19:00 +13°C° 0.5 mm 4 m/S 724 mmHg 79%
    20:00 +12°C° 0 mm 4 m/S 725 mmHg 78%
    21:00 +12°C° 0 mm 3 m/S 726 mmHg 77%
    22:00 +12°C° 0 mm 2 m/S 727 mmHg 76%
    23:00 +12°C° 0 mm 2 m/S 727 mmHg 76%

    übermorgen, 22 September, Samstag

    Zeit Temperatur Niederschläge Wind Luftdruck Luftfeuchtigkeit
    00:00 +12°C° 0 mm 2 m/S 727 mmHg 76%
    01:00 +10°C° 0 mm 2 m/S 728 mmHg 76%
    02:00 +10°C° 0 mm 2 m/S 728 mmHg 76%
    03:00 +11°C° 0 mm 1 m/S 728 mmHg 76%
    04:00 +11°C° 0 mm 1 m/S 728 mmHg 76%
    05:00 +11°C° 0 mm 1 m/S 728 mmHg 76%
    06:00 +11°C° 0 mm 1 m/S 728 mmHg 77%
    07:00 +10°C° 0 mm 1 m/S 728 mmHg 77%
    08:00 +12°C° 0 mm 2 m/S 729 mmHg 69%
    09:00 +14°C° 0 mm 2 m/S 729 mmHg 62%
    10:00 +14°C° 0 mm 3 m/S 729 mmHg 54%
    11:00 +16°C° 0 mm 3 m/S 729 mmHg 50%
    12:00 +17°C° 0 mm 3 m/S 728 mmHg 47%
    13:00 +18°C° 0 mm 3 m/S 728 mmHg 43%
    14:00 +18°C° 0 mm 3 m/S 728 mmHg 43%
    15:00 +18°C° 0 mm 3 m/S 728 mmHg 43%
    16:00 +18°C° 0 mm 3 m/S 728 mmHg 43%
    17:00 +17°C° 0 mm 2 m/S 728 mmHg 49%
    18:00 +15°C° 0 mm 2 m/S 727 mmHg 55%
    19:00 +14°C° 0 mm 1 m/S 727 mmHg 61%
    20:00 +13°C° 0.1 mm 1 m/S 727 mmHg 65%
    21:00 +13°C° 0.1 mm 1 m/S 727 mmHg 69%
    22:00 +12°C° 0.1 mm 1 m/S 728 mmHg 73%
    23:00 +12°C° 0.3 mm 1 m/S 727 mmHg 76%

    23 September, Sonntag

    Zeit Temperatur Niederschläge Wind Luftdruck Luftfeuchtigkeit
    00:00 +12°C° 0.3 mm 1 m/S 727 mmHg 79%
    01:00 +12°C° 0.3 mm 2 m/S 727 mmHg 83%
    02:00 +12°C° 0.1 mm 2 m/S 726 mmHg 81%
    03:00 +13°C° 0.1 mm 2 m/S 725 mmHg 79%
    04:00 +12°C° 0.1 mm 3 m/S 725 mmHg 77%
    05:00 +13°C° 0.1 mm 3 m/S 725 mmHg 72%
    06:00 +13°C° 0.1 mm 4 m/S 724 mmHg 68%
    07:00 +14°C° 0.1 mm 5 m/S 724 mmHg 63%
    08:00 +16°C° 0.3 mm 5 m/S 724 mmHg 64%
    09:00 +17°C° 0.3 mm 5 m/S 724 mmHg 66%
    10:00 +19°C° 0.3 mm 6 m/S 724 mmHg 67%
    11:00 +21°C° 0 mm 6 m/S 723 mmHg 63%
    12:00 +23°C° 0 mm 7 m/S 723 mmHg 60%
    13:00 +24°C° 0 mm 8 m/S 722 mmHg 56%
    14:00 +24°C° 0 mm 7 m/S 722 mmHg 57%
    15:00 +24°C° 0 mm 7 m/S 721 mmHg 58%
    16:00 +24°C° 0 mm 7 m/S 721 mmHg 59%
    17:00 +22°C° 0.2 mm 7 m/S 720 mmHg 64%
    18:00 +21°C° 0.2 mm 6 m/S 719 mmHg 70%
    19:00 +20°C° 0.2 mm 6 m/S 719 mmHg 75%
    20:00 +18°C° 0.8 mm 7 m/S 719 mmHg 77%
    21:00 +18°C° 0.8 mm 9 m/S 719 mmHg 80%
    22:00 +17°C° 0.8 mm 10 m/S 719 mmHg 83%
    23:00 +15°C° 0.5 mm 9 m/S 720 mmHg 84%

    24 September, Montag

    Zeit Temperatur Niederschläge Wind Luftdruck Luftfeuchtigkeit
    00:00 +12°C° 0.5 mm 9 m/S 722 mmHg 84%
    01:00 +10°C° 0.5 mm 8 m/S 723 mmHg 85%
    02:00 +9°C° 0 mm 7 m/S 725 mmHg 84%
    03:00 +8°C° 0 mm 5 m/S 728 mmHg 82%
    04:00 +7°C° 0 mm 4 m/S 730 mmHg 81%
    05:00 +8°C° 0 mm 3 m/S 731 mmHg 82%
    06:00 +8°C° 0 mm 3 m/S 732 mmHg 83%
    07:00 +8°C° 0 mm 2 m/S 733 mmHg 84%
    08:00 +9°C° 0 mm 2 m/S 733 mmHg 78%
    09:00 +10°C° 0 mm 2 m/S 734 mmHg 71%
    10:00 +11°C° 0 mm 3 m/S 734 mmHg 65%
    11:00 +12°C° 0 mm 3 m/S 734 mmHg 59%
    12:00 +13°C° 0 mm 3 m/S 734 mmHg 53%
    13:00 +14°C° 0 mm 3 m/S 734 mmHg 47%
    14:00 +13°C° 0 mm 3 m/S 734 mmHg 47%
    15:00 +13°C° 0 mm 3 m/S 734 mmHg 47%
    16:00 +13°C° 0 mm 3 m/S 734 mmHg 47%
    17:00 +12°C° 0 mm 3 m/S 735 mmHg 52%
    18:00 +10°C° 0 mm 2 m/S 735 mmHg 57%
    19:00 +10°C° 0 mm 1 m/S 735 mmHg 61%
    20:00 +9°C° 0 mm 1 m/S 735 mmHg 63%
    21:00 +8°C° 0 mm 1 m/S 736 mmHg 65%
    22:00 +7°C° 0 mm 1 m/S 736 mmHg 67%
    23:00 +7°C° 0 mm 1 m/S 736 mmHg 69%

    25 September, Dienstag

    Zeit Temperatur Niederschläge Wind Luftdruck Luftfeuchtigkeit
    00:00 +7°C° 0 mm 1 m/S 736 mmHg 72%
    01:00 +6°C° 0 mm 1 m/S 736 mmHg 74%
    02:00 +6°C° 0 mm 1 m/S 737 mmHg 77%
    03:00 +6°C° 0 mm 1 m/S 737 mmHg 79%
    04:00 +5°C° 0 mm 1 m/S 737 mmHg 82%
    05:00 +5°C° 0 mm 1 m/S 737 mmHg 82%
    06:00 +5°C° 0 mm 1 m/S 737 mmHg 82%
    07:00 +5°C° 0 mm 1 m/S 737 mmHg 82%
    08:00 +7°C° 0 mm 2 m/S 737 mmHg 72%
    09:00 +9°C° 0 mm 3 m/S 737 mmHg 62%
    10:00 +11°C° 0 mm 3 m/S 737 mmHg 53%
    11:00 +12°C° 0 mm 3 m/S 737 mmHg 49%
    12:00 +13°C° 0 mm 3 m/S 737 mmHg 45%
    13:00 +14°C° 0 mm 3 m/S 737 mmHg 42%
    14:00 +14°C° 0 mm 3 m/S 736 mmHg 42%
    15:00 +14°C° 0 mm 3 m/S 736 mmHg 43%
    16:00 +14°C° 0 mm 3 m/S 735 mmHg 44%
    17:00 +12°C° 0 mm 3 m/S 735 mmHg 50%
    18:00 +12°C° 0 mm 2 m/S 735 mmHg 57%
    19:00 +9°C° 0 mm 2 m/S 735 mmHg 64%
    20:00 +8°C° 0 mm 2 m/S 735 mmHg 67%
    21:00 +7°C° 0 mm 2 m/S 735 mmHg 69%
    22:00 +6°C° 0 mm 2 m/S 735 mmHg 71%
    23:00 +6°C° 0 mm 2 m/S 735 mmHg 73%
    Mehr zeigen